Weather History for Friday Harbor, WA

Change the Weather History Date:

Sunday, December 2, 2012

  Actual Average Record
Temperature  
Mean Temperature 47 °F -  
Max Temperature 50 °F 45 °F 54 °F (2008)
Min Temperature 43 °F 36 °F 27 °F (2014)
Degree Days  
Heating Degree Days 18    
Moisture  
Dew Point 43 °F    
Average Humidity 87    
Maximum Humidity 96    
Minimum Humidity 71    
Precipitation  
Precipitation 0.12 in - - ()
Sea Level Pressure  
Sea Level Pressure 29.41 in    
Wind  
Wind Speed 11 mph (SSE)    
Max Wind Speed 16 mph    
Max Gust Speed 26 mph    
Visibility 10 miles    
Events Rain    
Averages and records for this station are not official NWS values.
T = Trace of Precipitation, MM = Missing Value Source: NWS Daily Summary

Daily Weather History Graph

Daily Weather History Graph

Search for Another Location

Airport:

Trip Planner

Search our weather history database for the weather conditions in past years. The results will help you decide how hot, cold, wet, or windy it might be!

Date:

Astronomy

Dec. 02, 2012 Rise Set
Actual Time 7:44 AM PST 4:18 PM PST
Civil Twilight 7:08 AM PST 4:54 PM PST
Nautical Twilight 6:29 AM PST 5:34 PM PST
Astronomical Twilight 5:51 AM PST 6:11 PM PST
Moon 8:20 PM PST (12/2) 10:30 AM PST (12/2)
Length of Visible Light 9h 45m
Length of Day
8h 33m
Waning Gibbous, 85% of the Moon is Illuminated
Dec 2
Waning Gibbous
Dec 6
Last Quarter
Dec 13
New
Dec 19
First Quarter
Dec 28
Full

Hourly Weather History & Observations

Time (PST) Temp. Windchill Dew Point Humidity Pressure Visibility Wind Dir Wind Speed Gust Speed Precip Events Conditions
12:53 AM 48.9 °F - 39.9 °F 71% 29.19 in 10.0 mi ESE 16.1 mph 24.2 mph N/A   Overcast
1:53 AM 48.9 °F - 39.9 °F 71% 29.18 in 10.0 mi SE 16.1 mph 24.2 mph N/A   Overcast
2:53 AM 46.9 °F - 42.1 °F 83% 29.19 in 10.0 mi SE 15.0 mph 21.9 mph 0.00 in Rain Light Rain
3:26 AM 46.4 °F 39.8 °F 42.8 °F 87% 29.18 in 9.0 mi SE 16.1 mph 23.0 mph 0.00 in Rain Light Rain
3:53 AM 46.9 °F - 43.0 °F 86% 29.16 in 10.0 mi SE 16.1 mph 26.5 mph 0.00 in   Overcast
4:08 AM 46.4 °F 39.8 °F 42.8 °F 87% 29.15 in 10.0 mi SE 16.1 mph 23.0 mph N/A   Overcast
4:53 AM 46.9 °F - 43.0 °F 86% 29.17 in 10.0 mi South 12.7 mph 21.9 mph N/A   Overcast
5:08 AM 46.4 °F 41.9 °F 42.8 °F 87% 29.18 in 10.0 mi South 9.2 mph 19.6 mph 0.00 in Rain Light Rain
5:53 AM 45.0 °F - 43.0 °F 93% 29.21 in 7.0 mi Calm Calm - 0.09 in Rain Light Rain
6:53 AM 44.1 °F 41.5 °F 39.9 °F 85% 29.24 in 10.0 mi SW 4.6 mph - 0.00 in   Scattered Clouds
7:53 AM 44.1 °F 41.5 °F 39.9 °F 85% 29.27 in 10.0 mi Variable 4.6 mph - N/A   Clear
8:53 AM 45.0 °F - 41.0 °F 86% 29.31 in 10.0 mi Calm Calm - N/A   Clear
9:53 AM 46.0 °F - 41.0 °F 83% 29.35 in 10.0 mi Calm Calm - N/A   Overcast
10:53 AM 46.0 °F 43.1 °F 43.0 °F 89% 29.40 in 9.0 mi SSE 5.8 mph - 0.00 in   Overcast
11:53 AM 48.0 °F - 43.0 °F 83% 29.42 in 9.0 mi East 8.1 mph - 0.00 in   Overcast
12:53 PM 46.9 °F - 43.0 °F 86% 29.44 in 10.0 mi SE 9.2 mph - 0.00 in   Overcast
1:53 PM 50.0 °F - 43.0 °F 77% 29.48 in 10.0 mi SSE 9.2 mph - N/A   Scattered Clouds
2:53 PM 48.0 °F - 43.0 °F 83% 29.52 in 10.0 mi SE 11.5 mph - N/A   Mostly Cloudy
3:53 PM 48.0 °F - 44.1 °F 86% 29.55 in 10.0 mi SSE 11.5 mph - 0.00 in   Overcast
4:53 PM 46.9 °F - 44.1 °F 90% 29.57 in 10.0 mi SSE 9.2 mph - 0.00 in Rain Light Rain
5:20 PM 46.4 °F 41.9 °F 44.6 °F 93% 29.59 in 7.0 mi SSE 9.2 mph - 0.00 in Rain Light Rain
5:31 PM 46.4 °F 43.5 °F 44.6 °F 93% 29.59 in 10.0 mi SE 5.8 mph - 0.00 in Rain Light Rain
5:53 PM 46.9 °F - 44.1 °F 90% 29.60 in 10.0 mi SE 9.2 mph - 0.00 in Rain Light Rain
6:53 PM 46.9 °F - 44.1 °F 90% 29.61 in 10.0 mi SSE 10.4 mph - 0.00 in   Overcast
7:53 PM 46.0 °F 43.1 °F 43.0 °F 89% 29.63 in 10.0 mi South 5.8 mph - 0.01 in   Overcast
8:53 PM 46.0 °F 44.8 °F 44.1 °F 93% 29.66 in 10.0 mi South 3.5 mph - 0.00 in Rain Light Rain
9:53 PM 46.0 °F 43.9 °F 44.1 °F 93% 29.68 in 10.0 mi South 4.6 mph - 0.00 in Rain Light Rain
10:53 PM 44.1 °F - 43.0 °F 96% 29.70 in 10.0 mi Calm Calm - 0.02 in   Partly Cloudy
11:53 PM 43.0 °F - 41.0 °F 93% 29.72 in 10.0 mi Calm Calm - N/A   Mostly Cloudy